Regional Weather Roundup
Issued by NWS

Home | Current Version | Previous Version | Graphics & Text | Print | Product List | Glossary Off
Versions: 1 2 3 4 5 6 7 8 9 10 11 12 13 14 15 16 17 18 19 20 21 22 23 24 25 26 27 28 29 30 31 32 33 34 35 36 37 38 39 40 41 42 43 44 45 46 47 48 49 50

427
ASUS43 KDMX 271006
RWRIA

WEATHER ROUNDUP FOR IOWA
NATIONAL WEATHER SERVICE DES MOINES IA
400 AM CST MON FEB 27 2017

NOTE: "FAIR" INDICATES FEW OR NO CLOUDS BELOW 12,000 FEET WITH NO
SIGNIFICANT WEATHER AND/OR OBSTRUCTIONS TO VISIBILITY.

* - THESE STATIONS ARE NOT NWS STATIONS...THUS NOT UNDER NWS
QUALITY CONTROL.  THEY ALSO DO NOT REPORT WEATHER SUCH
AS PRECIPITATION OR FOG.

IAZ001>003-012>014-020>022-031>034-043>046-271100-
   NORTHWEST IOWA

CITY           SKY/WX    TMP DP  RH WIND       PRES   REMARKS
CARROLL *      CLOUDY    19  19 100 CALM      29.98S
CHEROKEE *       N/A     12  11  98 CALM      29.97S FOG
DENISON *      CLEAR     19  18  93 CALM      29.96R
LE MARS *      CLEAR     21  19  93 S6        29.96F WCI  14
SHELDON *      CLEAR     25  25 100 S9        29.92S WCI  15
SIOUX CITY     CLEAR     16  14  92 E5        29.97S WCI   9
SPENCER        CLEAR     17  14  88 S5        29.94F WCI  10
STORM LAKE *   CLEAR     21  16  79 S12       29.95S WCI   9
$$

IAZ055>058-069>071-079>083-090>094-271100-
   SOUTHWEST IOWA

CITY           SKY/WX    TMP DP  RH WIND       PRES   REMARKS
ATLANTIC *     CLEAR     23  21  93 CALM      29.99S
AUDUBON *      CLEAR     19  16  86 CALM      29.98S
CLARINDA *     CLEAR     19  19 100 CALM      30.02S
COUNCIL BLFS * CLEAR     28  23  80 SE6       29.97F WCI  22
CRESTON *      CLEAR     27  19  74 S5        30.00S WCI  21
HARLAN  *      CLEAR     18  18 100 CALM      30.02R
LAMONI         CLEAR     30  28  92 S8        30.00F WCI  22
RED OAK *      CLEAR     23  21  93 CALM      30.00R
SHENANDOAH *   CLEAR     21  21 100 CALM      30.00S
$$

IAZ047>049-059>061-072>074-084-271100-
   CENTRAL IOWA

CITY           SKY/WX    TMP DP  RH WIND       PRES   REMARKS
AMES           FOG       23  23 100 CALM      30.01S VSB 1
ANKENY *       CLEAR     21  21 100 CALM      30.02F
BOONE *        CLEAR     25  23  93 SE7       29.99S WCI  17
CHARITON *     PTCLDY    30  27  86 S8        30.01S WCI  23
DES MOINES     CLEAR     28  21  75 CALM      30.01S
GRINNELL*      CLEAR     26  22  84 E6        30.02F WCI  20
KNOXVILLE *    PTCLDY    32  23  69 SE7       30.00S WCI  26
MARSHALLTOWN   CLEAR     20  20 100 SE6       30.01F WCI  12
NEWTON *       PTCLDY    27  21  80 NE5       30.01S WCI  21
PELLA *        CLEAR     30  24  78 SE5       30.03S WCI  25
PERRY *          N/A     24  23  96 CALM      30.00S
$$

IAZ004>006-015-016-023>025-035-036-271100-
   NORTH CENTRAL IOWA

CITY           SKY/WX    TMP DP  RH WIND       PRES   REMARKS
ALGONA *       CLEAR     16  16 100 S10       29.96F WCI   3
CLARION *      CLEAR     19  19 100 S8        29.99S WCI   9
ESTHERVILLE    CLEAR     15  13  91 S10       29.94S WCI   2
FORT DODGE *   CLEAR     18  12  79 CALM      29.99S
MASON CITY     CLEAR     13  10  88 S6        30.00S WCI   4
FOREST CITY *  FOG        5   3  92 CALM      29.98S VSB 1/2
WEBSTER CITY * CLEAR     19  18  93 S7        29.98S WCI  10
IOWA FALLS *     N/A     23  22  94 SE5       30.01S WCI  17
$$

IAZ007>011-017>019-026>030-037>042-050>054-066-271100-
   NORTHEAST IOWA

CITY           SKY/WX    TMP DP  RH WIND       PRES   REMARKS
CEDAR RAPIDS   PTCLDY    24  23  96 E7        30.03F WCI  16
CHARLES CITY * CLEAR     21  21 100 S8        30.01S WCI  12
CLINTON *      CLEAR     26  24  92 SE5       30.07  WCI  20
DECORAH *      CLEAR     23  21  93 CALM      30.00F
DUBUQUE        CLEAR     23  20  88 CALM      30.05S
MONTICELLO *   PTCLDY    23  21  93 CALM      30.05S
OELWEIN *      CLEAR     25  25 100 SE5       30.02F WCI  19
WATERLOO       CLEAR     21  18  88 SE3       30.02F FOG
$$

IAZ064-065-067-068-078-271100-
   EAST CENTRAL IOWA

CITY           SKY/WX    TMP DP  RH WIND       PRES   REMARKS
DAVENPORT      CLEAR     26  21  81 SE6       30.06S WCI  19
IOWA CITY      PTCLDY    27  24  89 CALM      30.06F
MUSCATINE *    PTCLDY    25  23  93 CALM      30.07S
QUAD CITIES    PTCLDY    30  25  81 S3        30.06F
$$

IAZ062-063-075>077-085>089-095>099-271100-
   SOUTHEAST IOWA

CITY           SKY/WX    TMP DP  RH WIND       PRES   REMARKS
BURLINGTON     PTCLDY    30  28  92 S3        30.07S
FAIRFIELD *    MOCLDY    32  28  86 S8        30.05R WCI  25
KEOKUK *       CLEAR     34  32  93 CALM      30.07R
CENTERVILLE *    N/A     28  28 100 CALM      30.04S
OTTUMWA        CLOUDY    32  29  88 S7        30.04R WCI  26
WASHINGTON *   PTCLDY    27  27 100 S8        30.06S WCI  18
$$

ABBREVIATIONS USED IN REMARKS
   TC - TEMPERATURES IN CELSIUS
  WCI - WIND CHILL INDEX
   HX - HEAT INDEX
  VSB - VISIBILITY
$$





USA.gov is the U.S. government's official web portal to all federal, state and local government web resources and services.